DW1454 Weather Reports


time (UTC)temp
C
wind
direction
speed
KPH
gust
KPH
rain 1hr
cm
rain 24hr
cm
rain mn
cm
humidity
%
barometer
mb
20260507034005 5 0.0 0.0 0.00 0.00 0.00 30 1014.6
20260507033005 5 0.0 0.0 0.00 0.00 0.00 30 1014.6
20260507032005 5 0.0 0.0 0.00 0.00 0.00 29 1014.6
20260507031006 5 0.0 0.0 0.00 0.00 0.00 28 1014.6
20260507030005 5 0.0 0.0 0.00 0.00 0.00 28 1014.6
20260507025006 5 0.0 0.0 0.00 0.00 0.00 28 1014.5
20260507024006 5 0.0 0.0 0.00 0.00 0.00 28 1014.5
20260507023221 5 0.0 0.0 0.00 0.00 0.00 27 1014.4
20260507022006 5 0.0 0.0 0.00 0.00 0.00 26 1014.4
20260507021006 5 0.0 0.0 0.00 0.00 0.00 27 1014.3
20260507020217 6 0.0 0.0 0.00 0.00 0.00 27 1014.3
20260507015006 5 0.0 0.0 0.00 0.00 0.00 26 1014.2
20260507014006 5 0.0 0.0 0.00 0.00 0.00 26 1014.3
20260507013006 5 0.0 0.0 0.00 0.00 0.00 24 1014.3
20260507012217 6 0.0 0.0 0.00 0.00 0.00 25 1014.2
20260507011006 6 0.0 0.0 0.00 0.00 0.00 27 1014.2
20260507010005 6 0.0 0.0 0.00 0.00 0.00 29 1014.2
20260507005008 5 0.0 0.0 0.00 0.00 0.00 29 1014.2
20260507004007 5 0.0 0.0 0.00 0.00 0.00 28 1014.2
20260507003005 6 0.0 0.0 0.00 0.00 0.00 29 1014.2
20260507002216 6 0.0 0.0 0.00 0.00 0.00 29 1014.2
20260507001005 5 0.0 0.0 0.00 0.00 0.00 28 1014.2
20260507000007 6 0.0 0.0 0.00 0.00 0.00 30 1014.1
20260506235007 6 0.0 0.0 0.00 0.00 0.00 30 1014.0
20260506234216 6 0.0 0.0 0.00 0.00 0.00 31 1013.9
20260506233006 6 0.0 0.0 0.00 0.00 0.00 30 1013.9
20260506232005 6 0.0 0.0 0.00 0.00 0.00 31 1013.9
20260506231215 7 0.0 0.0 0.00 0.00 0.00 32 1013.9
20260506230006 6 0.0 0.0 0.00 0.00 0.00 32 1013.9
20260506225217 6 0.0 0.0 0.00 0.00 0.00 31 1013.9
20260506224006 6 0.0 0.0 0.00 0.00 0.00 31 1013.9
20260506223216 6 0.0 0.0 0.00 0.00 0.00 32 1013.9
20260506222006 5 0.0 0.0 0.00 0.00 0.00 32 1013.9
20260506221006 5 0.0 0.0 0.00 0.00 0.00 33 1013.9
20260506220006 5 0.0 0.0 0.00 0.00 0.00 34 1013.8
20260506215006 5 0.0 0.0 0.00 0.00 0.00 34 1013.8
20260506214006 5 0.0 0.0 0.00 0.00 0.00 35 1013.7
20260506213006 5 0.0 0.0 0.00 0.00 0.00 34 1013.7
20260506212006 5 0.0 0.0 0.00 0.00 0.00 35 1013.7
20260506211006 5 0.0 0.0 0.00 0.00 0.00 37 1013.6
20260506210006 5 0.0 0.0 0.00 0.00 0.00 37 1013.6
20260506205006 5 0.0 0.0 0.00 0.00 0.00 37 1013.6
20260506204217 5 0.0 0.0 0.00 0.00 0.00 38 1013.6
20260506203006 5 0.0 0.0 0.00 0.00 0.00 40 1013.5
20260506202006 4 0.0 0.0 0.00 0.00 0.00 41 1013.5
20260506201217 3 0.0 0.0 0.00 0.00 0.00 41 1013.6
20260506200006 3 0.0 0.0 0.00 0.00 0.00 43 1013.6
20260506195006 3 0.0 0.0 0.00 0.00 0.00 42 1013.5
20260506194006 4 0.0 0.0 0.00 0.00 0.00 46 1013.4
20260506193006 3 0.0 0.0 0.00 0.00 0.00 47 1013.4
20260506192006 2 0.0 0.0 0.00 0.00 0.00 47 1013.4
20260506191005 3 0.0 0.0 0.00 0.00 0.00 49 1013.4
20260506190216 3 0.0 0.0 0.00 0.00 0.00 50 1013.2
20260506185006 3 0.0 0.0 0.00 0.00 0.00 51 1013.1
20260506184006 2 0.0 0.0 0.00 0.00 0.00 53 1013.1
20260506183216 2 0.0 0.0 0.00 0.00 0.00 53 1013.1
20260506182005 2 0.0 0.0 0.00 0.00 0.00 54 1013.1
20260506181006 2 0.0 0.0 0.00 0.00 0.00 54 1013.0
20260506180006 2 0.0 0.0 0.00 0.00 0.00 54 1012.9
20260506175005 2 0.0 0.0 0.00 0.00 0.00 55 1012.8
20260506174215 2 0.0 0.0 0.00 0.00 0.00 55 1012.7
20260506173215 1 0.0 0.0 0.00 0.00 0.00 55 1012.7
20260506172007 2 0.0 0.0 0.00 0.00 0.00 55 1012.7
20260506171006 2 0.0 0.0 0.00 0.00 0.00 55 1012.6
20260506170005 1 0.0 0.0 0.00 0.00 0.00 56 1012.6
20260506165006 1 0.0 0.0 0.00 0.00 0.00 56 1012.4
20260506164006 1 0.0 0.0 0.00 0.00 0.00 57 1012.4
20260506163006 1 0.0 0.0 0.00 0.00 0.00 57 1012.2
20260506162006 1 0.0 0.0 0.00 0.00 0.00 57 1012.1
20260506161005 1 0.0 0.0 0.00 0.00 0.00 58 1012.0
20260506160006 1 0.0 0.0 0.00 0.00 0.00 58 1011.9
20260506155006 1 0.0 0.0 0.00 0.00 0.00 58 1011.8
20260506154005 1 0.0 0.0 0.00 0.00 0.00 58 1011.8
20260506153005 1 0.0 0.0 0.00 0.00 0.00 57 1011.7
20260506152005 1 0.0 0.0 0.00 0.00 0.00 57 1011.6
20260506151006 1 0.0 0.0 0.00 0.00 0.00 57 1011.5
20260506150005 1 0.0 0.0 0.00 0.00 0.00 57 1011.4
20260506145006 1 0.0 0.0 0.00 0.00 0.00 57 1011.3
20260506144006 1 0.0 0.0 0.00 0.00 0.00 57 1011.2
20260506143005 1 0.0 0.0 0.00 0.00 0.00 57 1011.1
20260506142006 1 0.0 0.0 0.00 0.00 0.00 57 1011.1
20260506141005 1 0.0 0.0 0.00 0.00 0.00 57 1011.0
20260506140006 1 0.0 0.0 0.00 0.00 0.00 56 1011.0
20260506135216 1 0.0 0.0 0.00 0.00 0.00 56 1010.9
20260506134005 1 0.0 0.0 0.00 0.00 0.00 56 1010.8
20260506133005 1 0.0 0.0 0.00 0.00 0.00 56 1010.7
20260506132005 1 0.0 0.0 0.00 0.00 0.00 57 1010.6
20260506131006 1 0.0 0.0 0.00 0.00 0.00 57 1010.6
20260506130006 1 0.0 0.0 0.00 0.00 0.00 57 1010.5
20260506125216 2 0.0 0.0 0.00 0.00 0.00 57 1010.3
20260506124006 2 0.0 0.0 0.00 0.00 0.00 57 1010.2
20260506123005 2 0.0 0.0 0.00 0.00 0.00 57 1010.1
20260506122006 2 0.0 0.0 0.00 0.00 0.00 57 1009.9
20260506121006 2 0.0 0.0 0.00 0.00 0.00 57 1009.8
20260506120006 2 0.0 0.0 0.00 0.00 0.00 57 1009.7
20260506115005 2 0.0 0.0 0.00 0.00 0.00 58 1009.6
20260506114006 2 0.0 0.0 0.00 0.00 0.00 58 1009.5
20260506113006 2 0.0 0.0 0.00 0.00 0.00 59 1009.4
20260506112006 2 0.0 0.0 0.00 0.00 0.00 60 1009.3
20260506111006 2 0.0 0.0 0.00 0.00 0.00 60 1009.2
20260506110005 2 0.0 0.0 0.00 0.00 0.00 60 1009.0
20260506105006 1 0.0 0.0 0.00 0.00 0.00 60 1009.0
20260506104006 1 0.0 0.0 0.00 0.00 0.00 59 1008.9
20260506103006 1 0.0 0.0 0.00 0.00 0.00 59 1008.8
20260506102006 1 0.0 0.0 0.00 0.00 0.00 59 1008.6
20260506101006 1 0.0 0.0 0.00 0.00 0.00 59 1008.5
20260506100217 1 0.0 0.0 0.00 0.00 0.00 59 1008.4
20260506095006 1 0.0 0.0 0.00 0.00 0.00 58 1008.3
20260506094006 2 0.0 0.0 0.00 0.00 0.00 59 1008.2
20260506093216 2 0.0 0.0 0.00 0.00 0.00 59 1008.0
20260506092006 2 0.0 0.0 0.00 0.00 0.00 59 1008.0
20260506091006 2 0.0 0.0 0.00 0.00 0.00 60 1007.8
20260506090006 2 0.0 0.0 0.00 0.00 0.00 60 1007.7
20260506085006 2 0.0 0.0 0.00 0.00 0.00 59 1007.5
20260506084005 3 0.0 0.0 0.00 0.00 0.00 59 1007.4
20260506083006 3 0.0 0.0 0.00 0.00 0.00 59 1007.6
20260506082006 2 0.0 0.0 0.00 0.00 0.00 58 1007.5
20260506081005 3 0.0 0.0 0.00 0.00 0.00 58 1007.2
20260506073005 3 0.0 0.0 0.00 0.00 0.00 56 1007.2
20260506072006 3 0.0 0.0 0.00 0.00 0.00 56 1007.1
20260506071006 3 0.0 0.0 0.00 0.00 0.00 55 1007.1
20260506062005 5 0.0 0.0 0.00 0.00 0.00 53 1006.6
20260506061006 5 0.0 0.0 0.00 0.00 0.00 52 1006.3
20260506051006 5 0.0 0.0 0.00 0.00 0.00 50 1005.8
20260506045006 6 0.0 0.0 0.00 0.00 0.00 50 1005.7
20260506044217 6 0.0 0.0 0.00 0.00 0.00 49 1005.6
20260506043005 6 0.0 0.0 0.00 0.00 0.00 49 1005.6
20260506042007 6 0.0 0.0 0.00 0.00 0.00 48 1005.6
20260506041215 6 0.0 0.0 0.00 0.00 0.00 47 1005.6
20260506040006 6 0.0 0.0 0.00 0.00 0.00 47 1005.5
20260506035006 6 0.0 0.0 0.00 0.00 0.00 47 1005.4